"Pseudo-MPEC" for P21AYXW

Created 2022 Nov 25 13:22:21 UT using Find_Orb

Click here for an explanation of pseudo-MPECs

 
 Astrometry: 
     P21AYXW* C2022 10 28!M?=x$[\?JbBU\gLAstrometryT-YYV+!e87__:.=;5623:mo3r1F52
     P21AYXW  C2022 10 28/MHPS7g\redacted;nr]3dOrJiZA^oWclickp\hereKfor=+^iqGF52
     P21AYXW  C2022 10 28=?wJu47W\/ooNDBxgV?KLPub!8H9(?:y^7IY%;kexplanation$:F52
     P21AYXW KC2022 10 29.50264409 02 06.623+29 01 50.30   ~ATCb 22.02GVNEOCPI52
     P21AYXW KC2022 10 29.50496509 02 06.954+29 01 49.69   ~ATCb 21.61GVNEOCPI52
     P21AYXW KC2022 10 29.50728209 02 07.285+29 01 49.30   ~ATCb 22.28GVNEOCPI52

Station data:
(F52) Pan-STARRS 2, Haleakala  (N20.707382 W156.255910)  US/Hawaii.
   Observers J. Bulger, T. Dukes, T. Lowe, A. Schultz, M. Willman. Measurers
   K. Chambers, S. Chastel, T. de Boer, L. Denneau, J. Fairlamb, H.
   Flewelling, M. Huber, C.-C. Lin, E. Magnier, Y. Ramanjooloo, R. Wainscoat,
   R. Weryk. 1.8-m Ritchey-Chrétien + CCD.
(I52) Steward Observatory, Mt. Lemmon Station  (N32.442544 W110.788920)
   US/Arizona.  Observers T. A. Pruyne, B. M. Africano, E. J. Christensen, G.
   A. Farneth, D. C. Fuls, A. R. Gibbs, A. D. Grauer, H. Gröller, J. A.
   Johnson, R. A. Kowalski, S. M. Larson, G. J. Leonard, D. Rankin, R. L.
   Seaman, F. C. Shelly, K. W. Wierzchoś. 1.0-m reflector + CCD.

Orbital elements:  P21AYXW
   Perihelion 2022 Nov 29.80731 +/- 96.7 TT = 19:22:31 (JD 2459913.30731)
Epoch 2022 Oct 29.0 TT = JDT 2459881.5   Earth MOID: 0.7660   AutoNEOCP
M 353.36005134 +/- 70               (J2000 ecliptic)
n   0.20875541 +/- 0.315            Peri.   82.02314 +/- 110
a   2.81434638 +/- 2.83             Node    28.51454 +/- 20
e   0.3925356 +/- 0.245             Incl.   10.91079 +/- 1.6
P   4.72                   H 18.6   G  0.15   U 12.0  SR
q 1.70961512 +/- 0.521    Q 3.91907764 +/- 16.7
From 6 observations 2022 Oct. 28-29 (21.9 hr); mean residual 0".12
Residuals in arcseconds: 
221028 F52  .01-  .08+    221028 F52  .10-  .01-    221029 I52  .00   .07-    
221028 F52  .11+  .07-    221029 I52  .24+  .12+    221029 I52  .23-  .04-    

Ephemerides (geocentric):
Date (UTC) HH   RA             Dec           delta  r     elong  mag " sig PA
---- --------  ------------   ------------  ------ ------ -----  --- --------
2022 11 25 13  10 05 18.143   +27 32 14.44  1.2497 1.7100  99.0 21.6 195'  12
2022 11 25 14  10 05 23.343   +27 32 06.93  1.2494 1.7100  99.1 21.6 195'  12
2022 11 25 15  10 05 28.541   +27 31 59.42  1.2491 1.7100  99.1 21.6 196'  12
2022 11 25 16  10 05 33.736   +27 31 51.92  1.2487 1.7100  99.1 21.6 197'  12
2022 11 25 17  10 05 38.929   +27 31 44.42  1.2484 1.7099  99.1 21.6 198'  12
2022 11 25 18  10 05 44.119   +27 31 36.93  1.2481 1.7099  99.1 21.6 198'  12
2022 11 25 19  10 05 49.307   +27 31 29.45  1.2477 1.7099  99.2 21.6 199'  12
2022 11 25 20  10 05 54.492   +27 31 21.98  1.2474 1.7099  99.2 21.6 200'  12
2022 11 25 21  10 05 59.676   +27 31 14.51  1.2471 1.7099  99.2 21.6 201'  12
2022 11 25 22  10 06 04.856   +27 31 07.04  1.2467 1.7099  99.2 21.6 201'  12
2022 11 25 23  10 06 10.035   +27 30 59.59  1.2464 1.7099  99.3 21.6 202'  12
2022 11 26 00  10 06 15.211   +27 30 52.14  1.2461 1.7099  99.3 21.6 203'  12
2022 11 26 01  10 06 20.384   +27 30 44.69  1.2457 1.7099  99.3 21.6 204'  12
2022 11 26 02  10 06 25.555   +27 30 37.26  1.2454 1.7099  99.3 21.6 205'  12
2022 11 26 03  10 06 30.724   +27 30 29.83  1.2451 1.7099  99.3 21.6 205'  12
2022 11 26 04  10 06 35.890   +27 30 22.40  1.2447 1.7099  99.4 21.6 206'  12
2022 11 26 05  10 06 41.054   +27 30 14.98  1.2444 1.7099  99.4 21.6 207'  12
2022 11 26 06  10 06 46.215   +27 30 07.57  1.2441 1.7099  99.4 21.6 208'  12
2022 11 26 07  10 06 51.374   +27 30 00.17  1.2437 1.7099  99.4 21.6 208'  12
2022 11 26 08  10 06 56.530   +27 29 52.77  1.2434 1.7099  99.5 21.6 209'  13
2022 11 26 09  10 07 01.684   +27 29 45.38  1.2431 1.7098  99.5 21.6 210'  13
2022 11 26 10  10 07 06.836   +27 29 38.00  1.2428 1.7098  99.5 21.6 211'  13
2022 11 26 11  10 07 11.985   +27 29 30.62  1.2424 1.7098  99.5 21.6 212'  13
2022 11 26 12  10 07 17.132   +27 29 23.25  1.2421 1.7098  99.5 21.6 212'  13
2022 11 26 13  10 07 22.276   +27 29 15.89  1.2418 1.7098  99.6 21.6 213'  13
2022 11 26 14  10 07 27.418   +27 29 08.53  1.2414 1.7098  99.6 21.6 214'  13
2022 11 26 15  10 07 32.557   +27 29 01.18  1.2411 1.7098  99.6 21.6 215'  13
2022 11 26 16  10 07 37.694   +27 28 53.83  1.2408 1.7098  99.6 21.6 216'  13
2022 11 26 17  10 07 42.829   +27 28 46.50  1.2404 1.7098  99.7 21.6 216'  13
2022 11 26 18  10 07 47.961   +27 28 39.17  1.2401 1.7098  99.7 21.6 217'  13
2022 11 26 19  10 07 53.090   +27 28 31.84  1.2398 1.7098  99.7 21.6 218'  13
2022 11 26 20  10 07 58.218   +27 28 24.53  1.2394 1.7098  99.7 21.6 219'  13
2022 11 26 21  10 08 03.342   +27 28 17.22  1.2391 1.7098  99.7 21.6 220'  13
2022 11 26 22  10 08 08.465   +27 28 09.91  1.2388 1.7098  99.8 21.6 220'  13
2022 11 26 23  10 08 13.584   +27 28 02.62  1.2385 1.7098  99.8 21.6 221'  13
2022 11 27 00  10 08 18.702   +27 27 55.33  1.2381 1.7098  99.8 21.6 222'  13
2022 11 27 01  10 08 23.816   +27 27 48.04  1.2378 1.7098  99.8 21.6 223'  13
2022 11 27 02  10 08 28.929   +27 27 40.77  1.2375 1.7098  99.9 21.6 224'  13
2022 11 27 03  10 08 34.039   +27 27 33.50  1.2371 1.7098  99.9 21.6 225'  13
2022 11 27 04  10 08 39.146   +27 27 26.24  1.2368 1.7098  99.9 21.6 225'  13
2022 11 27 05  10 08 44.251   +27 27 18.98  1.2365 1.7097  99.9 21.6 226'  13
2022 11 27 06  10 08 49.354   +27 27 11.74  1.2361 1.7097  99.9 21.6 227'  13
2022 11 27 07  10 08 54.454   +27 27 04.50  1.2358 1.7097 100.0 21.6 228'  13
2022 11 27 08  10 08 59.551   +27 26 57.26  1.2355 1.7097 100.0 21.6 229'  13
2022 11 27 09  10 09 04.646   +27 26 50.04  1.2352 1.7097 100.0 21.6 230'  13
2022 11 27 10  10 09 09.739   +27 26 42.82  1.2348 1.7097 100.0 21.6 230'  13
2022 11 27 11  10 09 14.829   +27 26 35.60  1.2345 1.7097 100.1 21.6 231'  13
2022 11 27 12  10 09 19.916   +27 26 28.40  1.2342 1.7097 100.1 21.6 232'  13